Location: Brantley
(31.5822°N, 86.2569°W)
Time: 21:18:46
(UTC+00:00)

Transit 2A Rocket - Pass Details

Date: 25 February 2026
Orbit: 583 x 900 km, 66.7° (Epoch: 8 March)

Event Time Altitude Azimuth Distance (km) Brightness Sun altitude
Rises 05:35:00 0° 332° (NNW) 3,253 - -66.9°
Reaches altitude 10° 05:37:31 10° 330° (NNW) 2,270 - -67.0°
Maximum altitude 05:42:39 72° 247° (WSW) 733 - -67.2°
Drops below altitude 10° 05:47:17 10° 163° (SSE) 2,056 - -67.4°
Sets 05:49:28 0° 161° (SSE) 2,921 - -67.4°
